GFSMW_850_temp_303.txt.gz
Temp
8 8 10 10 10 9 8 10 10 11 9 10 10 10 11 10 10 10 10 10 10 10 10 11 11 11 12 12 12 12 12 11 10 9 9 9 9 9 9 9 9 9 9
8 8 8 9 9 9 9 9 9 9 9 9 10 10 10 10 9 9 9 9 9 10 10 11 11 11 11 11 11 12 12 11 10 10 9 9 9 9 10 9 8 8 8
9 9 9 9 9 9 9 8 8 8 8 9 9 9 10 9 9 8 9 9 9 10 10 10 10 11 11 11 11 11 11 10 10 11 11 9 8 10 10 9 8 8 7
9 9 9 9 9 9 9 8 8 8 8 8 8 8 8 9 8 8 9 9 9 10 10 10 10 10 10 10 10 10 10 10 9 9 9 8 7 7 7 8 8 8 7
10 10 10 10 9 9 8 8 8 8 7 7 8 8 8 9 9 9 8 8 9 9 9 9 9 9 9 9 9 9 9 9 8 8 7 6 5 4 2 3 5 6 6
10 10 9 9 9 9 9 8 8 8 7 7 7 7 8 9 9 8 8 8 8 8 8 8 8 8 8 8 8 8 8 8 8 7 7 6 5 3 2 1 3 6 7
9 10 10 9 9 9 9 8 7 8 7 7 7 7 7 8 8 8 8 7 8 8 7 7 7 8 8 7 7 7 7 7 7 6 6 5 5 4 3 1 -1 -1 2
10 10 10 10 9 9 8 8 7 7 7 7 7 7 7 7 7 7 7 8 7 7 7 7 7 6 7 7 7 7 7 6 6 6 5 5 4 3 2 1 -1 -1 -1
10 10 10 10 9 9 9 8 7 7 7 6 6 6 6 7 7 7 7 7 7 7 7 6 6 6 6 6 6 6 6 6 6 6 5 4 4 3 2 1 -0 -3 -3
8 8 10 10 9 9 8 7 7 7 7 6 6 6 6 7 7 7 7 7 7 6 6 6 6 6 6 6 6 6 6 6 6 5 4 4 4 3 3 2 1 -2 -4
8 8 9 10 9 9 8 7 6 6 6 6 6 6 6 7 6 6 7 6 6 6 6 6 6 6 6 6 6 6 6 5 5 5 5 4 4 3 2 2 0 -1 -4
7 7 9 9 9 8 7 7 6 6 6 6 6 6 6 6 6 7 6 6 6 6 6 6 6 6 6 6 5 5 5 5 5 5 5 4 4 3 2 1 0 -1 -2
7 6 8 9 9 8 7 7 7 6 6 6 6 6 6 6 6 6 6 6 6 6 6 6 5 5 5 5 5 5 5 4 4 4 4 4 3 3 2 1 -0 -1 -2
6 6 6 9 9 8 7 7 7 6 6 6 6 6 6 6 6 6 6 6 6 6 6 5 5 5 5 5 4 4 4 4 4 4 3 3 3 2 1 0 -0 -1 -2
6 6 7 8 9 8 7 7 7 6 6 6 6 6 6 6 6 6 6 6 6 6 5 5 5 5 5 4 5 5 4 4 3 3 3 3 2 1 0 -0 -1 -2 -3
6 6 7 8 9 8 8 8 7 6 6 6 6 6 6 6 6 6 6 6 6 6 5 5 5 5 5 5 5 4 4 4 3 3 3 2 2 1 0 0 -0 -2 -3
7 7 7 9 10 9 9 8 7 7 6 6 6 6 6 6 6 6 6 6 6 5 5 5 5 5 4 4 4 4 4 3 3 3 2 2 1 1 0 0 -0 -1 -2
9 9 9 10 10 10 9 8 7 7 7 6 6 6 6 6 6 6 6 6 5 5 5 5 4 4 4 4 4 4 3 3 3 2 2 2 1 0 -0 -0 -1 -2 -4
14 14 13 12 11 10 10 9 8 7 6 6 7 6 6 6 6 6 6 5 5 5 5 5 4 4 4 4 4 4 3 3 2 2 1 1 0 -1 -1 -1 -2 -3 -3
13 13 12 10 10 10 10 9 8 7 7 7 7 7 7 6 6 6 5 5 5 5 5 5 4 4 4 4 4 4 3 3 3 2 2 1 -0 -1 -1 -2 -4 -5 -4
15 12 11 12 12 11 10 9 8 8 8 8 7 7 7 6 6 5 5 5 5 5 5 5 4 4 4 4 4 4 3 3 3 2 2 1 -0 -1 -2 -2 -3 -5 -5
14 12 11 12 11 11 10 9 9 9 8 8 7 7 7 6 6 5 5 5 5 5 5 5 4 4 4 4 3 3 3 3 3 2 2 1 0 -1 -2 -2 -3 -4 -4
14 13 12 11 11 11 11 10 10 9 8 8 7 7 7 6 6 5 5 5 5 5 5 4 4 4 4 3 3 3 3 3 2 2 2 1 -0 -1 -2 -3 -3 -4 -6
14 12 11 11 11 11 11 11 10 10 9 8 7 7 6 6 5 5 5 5 5 5 5 5 4 4 4 3 3 3 2 2 2 2 1 0 -0 -1 -2 -4 -5 -7 -7
13 13 13 12 12 12 11 11 10 10 9 9 8 7 7 6 5 5 5 5 5 5 4 4 4 4 4 3 3 3 2 2 2 2 0 -0 -1 -2 -3 -4 -6 -7 -7
13 13 12 12 12 12 11 11 11 11 10 9 8 8 7 6 6 5 5 5 4 4 4 4 4 4 3 3 3 3 2 2 2 1 -0 -1 -2 -3 -5 -7 -7 -8 -8

GFSMW_850_temp_309.txt.gz
Temp
14 12 11 10 9 10 11 11 11 11 11 11 11 12 11 12 12 11 12 12 11 11 10 10 10 10 11 11 8 8 8 8 9 10 11 10 9 9 9 9 8 8 7
15 13 12 12 11 9 9 10 10 10 10 10 11 12 11 12 11 11 11 11 11 11 11 11 11 9 9 11 11 8 9 8 10 9 11 13 11 11 9 8 7 6 6
15 13 12 12 11 11 9 10 9 9 8 8 10 10 12 12 11 10 10 10 10 11 11 11 11 10 9 11 11 10 9 8 9 10 9 12 12 10 10 9 8 7 6
16 14 13 13 12 11 11 10 8 8 9 10 11 11 9 7 7 9 10 10 10 10 10 10 11 10 11 11 10 11 10 8 7 7 7 7 7 8 11 10 9 8 7
16 15 14 13 13 12 11 10 9 8 9 10 10 9 8 9 9 10 10 10 10 10 10 9 10 10 11 10 10 10 10 10 8 6 6 6 7 6 7 8 8 7 7
17 16 14 14 13 12 11 10 9 9 8 9 9 9 9 9 9 9 9 9 9 10 9 9 10 10 10 10 10 10 10 9 8 6 5 5 5 5 5 5 6 5 6
18 16 15 14 13 12 11 10 10 9 8 7 7 8 8 8 9 9 9 9 9 9 9 10 10 9 9 9 9 9 8 8 8 7 4 4 3 3 3 4 4 4 5
18 16 15 14 13 12 11 10 10 9 8 7 6 6 7 6 6 5 6 5 6 8 9 9 9 9 9 8 8 8 8 8 8 7 6 3 2 2 2 2 2 3 4
18 16 15 14 13 12 11 10 10 9 8 7 6 6 6 5 5 5 4 5 7 9 9 9 9 8 8 8 8 8 7 7 7 5 5 2 2 2 2 1 1 1 2
18 16 15 14 13 11 10 9 10 9 8 7 6 5 5 5 5 4 5 5 7 8 8 8 8 8 7 7 7 7 7 6 6 4 4 4 4 2 1 1 1 1 1
19 16 15 14 12 11 10 9 9 9 8 6 6 5 5 4 4 5 6 7 8 8 8 8 7 7 7 7 7 7 6 5 5 5 4 4 4 2 1 0 0 0 -0
18 16 15 14 12 11 10 9 9 8 7 6 6 5 5 4 4 4 6 8 8 8 7 7 7 7 7 7 6 6 6 6 5 5 4 4 3 1 0 -0 -0 -1 -2
18 16 15 14 12 11 10 9 9 8 7 6 5 5 4 4 4 5 6 7 7 6 6 6 6 7 7 6 6 6 6 5 5 5 5 4 4 3 2 2 -1 -1 -2
17 16 15 14 12 11 10 9 9 8 7 6 5 4 4 5 7 6 6 6 6 6 6 6 6 6 6 6 6 6 5 5 5 6 5 4 4 3 3 2 1 1 -1
17 16 15 13 12 11 10 9 8 8 7 6 5 4 5 5 5 6 6 5 5 5 5 5 6 6 5 5 5 5 5 5 5 4 4 1 4 4 4 3 2 1 -2
17 16 15 13 12 11 10 9 8 7 7 6 6 5 4 4 4 5 5 5 4 4 4 4 5 5 3 5 5 5 5 5 4 3 2 1 2 2 2 2 1 -2 -3
16 16 15 13 12 11 10 9 9 8 7 6 6 5 5 4 4 4 3 4 4 4 5 4 4 4 5 5 5 5 5 4 4 4 4 2 -0 2 2 1 -2 -3 -4
16 15 15 14 13 11 10 10 9 8 7 7 6 5 5 5 4 4 4 4 4 5 5 4 3 3 5 5 5 5 5 4 3 4 4 3 2 3 2 1 -2 -3 -4
17 16 15 14 13 12 10 10 9 8 7 7 7 6 5 5 4 4 4 4 4 4 3 3 3 3 6 5 5 5 5 2 2 2 3 3 3 3 2 1 -1 -2 -2
17 16 15 14 13 12 10 10 9 8 8 8 7 6 6 5 4 4 4 4 3 3 3 3 3 4 4 5 5 5 4 3 0 1 -0 3 3 3 2 1 -0 -1 -1
16 15 14 14 13 12 10 10 9 9 8 8 7 7 6 5 5 4 4 4 4 4 3 3 3 4 4 6 5 4 4 3 2 0 -1 -1 3 2 2 1 -0 -1 -1
15 15 14 13 12 11 10 10 10 9 8 8 7 7 6 6 5 4 4 4 4 3 3 3 3 4 4 5 5 4 4 4 3 1 1 2 2 2 2 1 -0 -1 -2
15 14 13 13 12 11 10 10 10 9 8 8 7 7 6 6 5 4 4 4 4 3 3 3 3 3 4 5 5 5 4 4 3 3 3 3 3 3 1 -1 -2 -2 -5
15 14 13 12 12 11 10 10 10 9 8 8 7 7 6 6 5 5 4 4 4 4 3 3 3 3 5 5 5 5 4 4 4 4 3 3 2 0 -2 -4 -4 -3 -5
16 14 13 13 12 11 10 10 10 9 8 8 7 7 6 5 5 5 4 4 4 5 6 4 4 5 5 5 4 4 4 3 3 2 2 0 -1 -1 -2 -3 -4 -4 -5
16 15 14 13 12 11 11 10 10 9 8 8 7 6 6 5 5 4 4 4 4 5 5 5 5 4 5 5 4 4 3 3 3 2 2 1 1 0 -2 -3 -3 -4 -5

GFSMW_850_temp_312.txt.gz
Temp
12 11 10 12 11 12 11 11 11 12 13 11 12 13 13 13 13 12 13 12 12 12 11 11 11 12 13 12 9 10 10 11 11 11 11 11 11 10 9 9 9 8 6
14 13 11 10 10 12 11 11 11 11 12 11 11 12 12 12 12 13 13 12 12 12 12 11 11 12 12 12 10 9 9 11 11 11 12 11 10 9 10 10 8 8 7
15 13 12 11 10 11 11 12 11 11 10 11 11 11 11 11 10 13 14 13 12 12 12 12 11 11 12 12 11 9 8 9 10 11 11 12 10 11 10 9 8 8 7
16 14 13 12 12 11 10 11 10 10 9 11 11 10 11 10 12 12 12 11 12 12 12 11 12 12 11 11 11 10 10 10 10 9 9 8 8 8 9 9 8 8 7
16 15 14 13 12 12 11 10 9 9 10 10 10 10 11 10 10 10 10 11 11 10 10 11 12 11 11 10 10 11 11 11 9 9 8 8 7 7 6 7 6 7 6
17 16 15 14 13 12 11 10 9 8 9 9 10 10 11 11 10 10 10 9 10 10 11 11 10 11 10 10 10 10 10 10 10 8 8 8 7 6 5 5 5 5 5
18 17 15 14 14 13 12 10 9 9 8 8 9 10 11 10 9 9 10 10 10 10 10 10 10 9 10 10 10 10 10 9 9 8 7 7 7 6 6 4 4 4 5
19 17 16 15 14 13 12 11 10 9 8 7 8 9 10 10 10 9 9 9 10 10 10 9 9 10 10 10 9 9 9 9 8 8 7 5 6 6 4 3 2 3 3
19 17 16 15 14 13 12 11 10 10 8 7 7 8 9 9 8 8 8 9 9 9 8 9 9 9 9 9 9 9 9 8 8 8 7 6 5 4 3 4 2 1 1
20 18 17 15 14 13 12 11 11 10 8 7 7 7 7 7 6 7 6 8 8 8 9 9 8 9 9 9 9 8 8 8 7 7 7 6 5 4 3 3 1 1 0
19 18 17 15 14 13 12 11 10 10 8 7 7 7 6 6 6 6 6 7 8 8 9 8 8 8 8 8 8 8 8 7 7 7 6 5 4 4 4 3 2 1 1
19 18 17 15 14 12 11 10 10 10 8 7 6 6 6 6 6 6 7 8 8 8 7 7 8 8 8 8 8 8 7 7 7 6 5 5 5 5 4 4 3 2 1
20 18 16 15 13 12 11 10 10 9 8 7 6 6 5 6 5 6 6 7 7 7 7 7 8 8 8 7 7 7 7 7 6 6 6 5 5 5 4 4 3 2 2
20 18 16 15 13 12 11 10 9 9 8 7 6 6 5 5 5 6 7 7 6 7 7 7 7 7 7 7 7 7 6 6 6 6 5 6 5 4 4 4 3 2 1
19 18 16 15 13 12 11 10 9 9 8 7 6 5 5 5 5 6 6 7 7 7 7 6 7 7 7 7 7 6 6 6 5 4 4 5 5 5 4 3 2 1 -1
19 18 16 15 13 12 11 10 9 8 8 7 6 5 5 5 6 6 7 7 6 6 5 6 7 7 6 6 6 6 6 5 5 5 4 4 3 4 3 2 1 -2 -3
19 18 16 15 13 12 11 10 9 8 7 7 6 6 5 5 5 6 6 6 6 5 5 6 6 6 6 6 6 6 5 5 5 5 4 3 3 3 3 2 1 -3 -3
19 18 17 15 14 12 11 10 9 8 7 6 6 6 5 5 5 6 6 6 6 6 6 6 5 5 6 6 6 5 5 5 5 5 5 4 4 3 3 2 1 -3 -3
18 17 16 15 13 12 11 10 9 8 7 7 6 6 5 5 5 6 6 6 6 6 6 6 5 5 6 6 5 5 5 5 4 4 5 4 4 3 3 2 1 -0 -1
18 17 16 15 13 12 11 10 9 8 7 7 7 6 5 5 6 6 6 6 6 6 5 5 5 5 6 5 5 5 5 5 4 3 4 4 4 3 3 3 1 1 0
18 17 16 15 14 12 11 10 10 9 8 7 7 6 6 5 5 6 6 6 5 5 5 4 4 4 6 5 6 5 5 5 4 3 2 4 3 3 3 3 2 1 0
17 16 15 15 14 12 11 10 10 9 8 8 7 7 6 5 5 5 5 5 5 4 4 3 3 4 5 6 6 5 5 5 4 4 3 3 3 3 3 3 2 1 -2
17 16 15 14 14 12 11 10 10 9 9 8 8 7 6 6 5 5 4 4 4 4 4 3 3 4 6 6 6 5 5 5 4 4 4 3 3 3 2 2 0 -1 -3
17 16 15 14 13 12 11 11 10 10 9 8 8 7 7 6 6 5 5 4 4 4 4 4 4 5 6 7 6 6 5 5 4 4 3 3 3 3 1 -1 -2 -2 -3
16 15 14 13 13 12 11 11 10 10 9 8 8 7 7 6 6 5 5 5 5 5 5 5 6 6 7 7 6 5 5 5 4 4 3 3 3 1 0 -1 -2 -2 -3
16 15 14 13 13 12 11 11 10 10 9 8 8 7 7 6 6 5 4 4 4 4 4 5 6 6 6 6 6 5 5 5 4 3 3 3 3 1 1 -1 -2 -2 -2

GFSMW_850_temp_315.txt.gz
Temp
13 13 13 13 12 12 12 12 13 13 12 13 12 13 13 13 13 14 13 13 13 13 13 14 13 12 12 12 11 11 11 11 10 10 10 9 9 9 9 8 8 7 7
12 12 12 12 12 12 11 12 12 13 13 13 13 13 12 11 12 13 13 13 12 13 13 14 14 13 12 12 12 13 12 12 11 10 10 9 9 8 7 7 7 6 6
12 12 12 11 12 12 11 12 12 12 12 12 13 12 11 12 12 12 12 12 12 12 12 14 14 13 12 11 11 11 12 12 11 11 11 10 10 8 8 8 7 6 6
13 12 11 11 12 12 12 12 12 12 11 11 11 11 11 12 10 12 11 11 11 12 12 13 12 12 12 12 11 11 12 11 12 11 11 11 10 9 8 8 9 7 6
13 12 12 12 11 11 12 12 11 11 11 11 11 11 11 11 12 11 11 10 11 11 12 12 11 12 11 12 12 11 11 11 11 11 10 10 10 9 9 8 9 7 5
14 14 13 12 11 11 12 11 10 11 11 11 10 11 11 12 11 11 11 10 10 11 12 11 10 11 11 11 11 11 11 11 11 11 10 10 9 8 8 7 7 6 5
15 14 13 12 12 11 11 11 11 10 10 10 10 10 10 10 11 11 11 11 11 11 11 10 10 11 10 10 10 10 10 10 10 10 9 8 8 7 7 6 5 5 5
15 14 14 13 13 12 11 11 10 10 10 10 9 9 9 10 11 11 11 10 10 10 10 10 10 10 10 9 9 10 10 10 9 9 9 8 8 7 6 5 5 5 4
15 15 15 14 13 13 12 11 10 9 9 9 8 9 10 10 11 10 9 10 10 10 10 10 10 10 9 9 9 10 9 9 9 9 8 8 7 6 6 5 4 2 1
16 15 15 15 14 13 12 12 11 10 9 9 9 9 10 10 10 9 9 9 9 9 9 9 9 9 9 9 9 9 9 9 9 8 7 7 7 6 6 5 4 3 1
16 16 15 15 14 13 12 12 11 10 9 9 9 8 9 8 8 8 8 8 9 9 9 9 9 9 8 8 9 9 9 8 8 8 8 7 6 6 6 5 4 4 3
17 16 16 15 14 13 12 11 11 10 10 9 9 8 7 6 6 6 7 8 9 9 9 9 8 8 8 8 8 8 8 8 8 8 7 6 6 5 5 5 4 3 2
17 15 16 15 14 13 12 11 11 10 10 9 8 7 6 6 6 6 7 8 8 8 8 8 8 8 8 8 8 8 8 7 7 7 7 6 5 5 5 5 4 3 2
17 16 15 14 14 14 13 12 11 10 10 9 8 7 6 6 6 6 7 7 8 8 8 8 8 8 8 8 8 8 7 7 7 7 6 6 5 5 4 4 4 3 2
16 15 15 14 14 13 12 12 11 10 10 9 8 7 7 6 6 6 7 7 7 8 8 8 7 7 7 8 7 7 7 7 7 6 6 5 6 4 4 4 3 3 1
16 15 14 13 14 13 12 11 11 10 9 9 8 7 6 6 6 6 7 7 7 6 7 7 7 7 7 7 7 7 7 7 6 6 5 5 5 4 4 3 2 2 1
16 15 15 14 14 13 13 11 11 10 9 8 8 7 6 6 6 6 6 6 7 6 6 7 7 7 7 6 6 7 6 6 6 5 4 5 4 3 3 2 2 2 1
17 16 16 14 13 13 12 12 11 10 9 8 8 7 6 6 6 6 6 6 6 6 6 7 6 6 6 6 6 6 6 6 6 5 4 4 4 4 3 3 2 1 0
19 18 17 16 14 13 12 11 10 9 8 8 8 7 7 6 6 6 7 6 6 6 6 6 6 6 6 7 6 6 6 5 5 5 4 4 4 4 4 3 3 1 -0
19 18 16 15 14 13 12 11 10 9 8 8 8 7 7 6 6 7 7 6 5 6 6 5 5 6 6 6 6 6 6 5 4 4 4 4 4 4 4 3 3 2 1
19 18 17 16 15 14 12 11 10 9 9 9 8 7 7 6 6 6 6 6 5 5 5 5 5 6 6 6 6 6 5 5 4 4 5 4 4 4 4 3 3 2 1
19 18 17 16 15 13 12 11 10 9 9 9 8 7 6 6 6 5 5 4 5 5 5 5 4 5 6 6 6 5 5 5 4 5 4 4 4 4 3 3 3 1 -0
18 17 17 15 14 14 13 12 11 10 9 8 7 7 6 6 5 5 5 4 4 5 5 4 4 5 6 6 6 5 5 5 4 4 4 4 4 3 3 3 2 0 -1
18 17 16 15 14 13 13 12 11 10 9 8 8 7 7 6 6 5 5 5 4 5 5 5 5 6 6 6 6 6 5 5 5 4 4 4 4 3 3 2 1 -1 -1
16 16 16 15 14 13 12 12 11 10 9 8 8 7 7 6 6 5 5 5 6 6 6 6 7 7 7 8 7 6 6 5 5 4 4 4 4 3 2 2 1 -1 -2
16 16 15 15 14 13 12 11 11 10 9 8 8 8 7 7 6 6 5 5 5 6 5 6 6 7 6 6 6 5 5 5 5 4 4 4 4 3 2 1 1 -1 -1